Location: Krakow
(50.0830°N, 19.9170°E)
Time: 19:14:51
(UTC+01:00)

SR - Pass Details

Date: 15 February 2023
Orbit: 582 x 867 km, 66.7° (Epoch: 20 March)

Event Time Altitude Azimuth Distance (km) Brightness Sun altitude
Rises 17:32:45 0° 326° (NW) 2,890 ? -6.2°
Reaches altitude 10° 17:35:49 10° 348° (NNW) 1,948 ? -6.7°
Maximum altitude 17:38:36 16° 28° (NNE) 1,546 ? -7.1°
Drops below altitude 10° 17:41:21 10° 68° (ENE) 1,910 ? -7.6°
Enters shadow 17:41:33 - 70° (ENE) 1,962 ? -7.6°
Sets 17:44:18 0° 90° (E) 2,806 - -8.0°
